Location: Staunton
(38.1490°N, 79.0720°W)
Time: 09:17:17
(UTC-04:00)

ISS - Pass Details

Date: 17 October 2017
Orbit: 401 x 408 km, 51.6° (Epoch: 18 October)

Event Time Altitude Azimuth Distance (km) Brightness Sun altitude
Rises 20:02:43 0° 287° (WNW) 2,319 1.5 -17.9°
Reaches altitude 10° 20:06:13 10° 247° (WSW) 1,455 0.0 -18.6°
Maximum altitude 20:07:02 11° 233° (SW) 1,412 -0.4 -18.8°
Drops below altitude 10° 20:07:51 10° 218° (SW) 1,454 -0.6 -18.9°
Enters shadow 20:11:16 - 179° (S) 2,286 -0.1 -19.6°
